Time_in_sec,Mx,My,Mz
1323442549.05350137,-0.50197858,-0.13316332,-0.84646451
1323442549.10554338,-0.50097173,-0.13343294,-0.84486836
1323442549.15252090,-0.50155824,-0.13389954,-0.84605139
1323442549.20149326,-0.50322157,-0.13400909,-0.84550112
1323442549.25354266,-0.50268942,-0.13350862,-0.84752709
1323442549.30148864,-0.50216079,-0.13487099,-0.84530824
1323442549.35353589,-0.50336987,-0.13267222,-0.84564710
1323442549.40178633,-0.50384408,-0.13362113,-0.84720522
1323442549.45349264,-0.50276649,-0.13279082,-0.84651065
1323442549.50553823,-0.50255799,-0.13426028,-0.84533453
1323442549.55263972,-0.50323188,-0.13558143,-0.84587514
1323442549.60149455,-0.50280213,-0.13462405,-0.84508890
1323442549.65332508,-0.50261503,-0.13289380,-0.84842503
1323442549.70458794,-0.50169092,-0.13365555,-0.84606045
1323442549.75975347,-0.50304395,-0.13266383,-0.84678328
1323442549.80462956,-0.50328553,-0.13436021,-0.84665620
1323442549.85366750,-0.50142080,-0.13281234,-0.84579515
1323442549.90128875,-0.50362396,-0.13301058,-0.84783864
1323442549.95357752,-0.50215757,-0.13266830,-0.84724736
1323442550.00161362,-0.50340813,-0.13545024,-0.84665519
1323442550.05263114,-0.50255674,-0.13375261,-0.84751803
1323442550.11323285,-0.50248700,-0.13350020,-0.84854186
1323442550.15571666,-0.50351262,-0.13109419,-0.84566629
1323442550.20560575,-0.50322866,-0.13337874,-0.84781420
1323442550.25353885,-0.50277847,-0.13446045,-0.84919220
1323442550.30515814,-0.50260800,-0.13449295,-0.84623325
1323442550.35255957,-0.50285459,-0.13386394,-0.84817481
1323442550.40147710,-0.50179642,-0.13470185,-0.85029048
1323442550.45350051,-0.50083393,-0.13399421,-0.84934485
1323442550.50551987,-0.50182706,-0.13326630,-0.84837896
1323442550.55356956,-0.50350243,-0.13601427,-0.85063154
1323442550.60452962,-0.50266707,-0.13482149,-0.84956819
1323442550.66158199,-0.50060439,-0.13396746,-0.85215354
1323442550.70503402,-0.50241977,-0.13094640,-0.84932584
1323442550.76088738,-0.50290626,-0.13419390,-0.85138112
1323442550.80149698,-0.50193644,-0.13121024,-0.84775853
1323442550.85250545,-0.50185281,-0.13408560,-0.85119563
1323442550.90449142,-0.50177372,-0.13310836,-0.85196763
1323442550.95409989,-0.50177032,-0.13325362,-0.84965825
1323442551.00155258,-0.50222033,-0.13348053,-0.85070729
1323442551.06550813,-0.50138021,-0.13323396,-0.85194504
1323442551.10456300,-0.50133854,-0.13060120,-0.84862757
1323442551.15281510,-0.50428730,-0.13537666,-0.85285932
1323442551.20460367,-0.50183243,-0.13384728,-0.85081148
1323442551.25350857,-0.50270736,-0.13273160,-0.85227829
1323442551.30554128,-0.50275636,-0.13543348,-0.84892756
1323442551.35352492,-0.50248575,-0.13299254,-0.85072541
1323442551.40476656,-0.50144523,-0.13215518,-0.85067403
1323442551.46551466,-0.50260007,-0.13420525,-0.85059476
1323442551.50563312,-0.50247866,-0.13134548,-0.84586394
1323442551.56398630,-0.50307620,-0.13588041,-0.85227603
1323442551.60627460,-0.50109529,-0.13011616,-0.84887415
1323442551.65272141,-0.50061655,-0.13301983,-0.84998101
1323442551.70464110,-0.50144076,-0.13373034,-0.85079074
1323442551.75353432,-0.50211000,-0.13241166,-0.84865713
1323442551.81288791,-0.50451207,-0.13407220,-0.84980345
1323442551.86548328,-0.50323200,-0.12998728,-0.84745401
1323442551.90554976,-0.50146759,-0.13084231,-0.84863299
1323442551.95515656,-0.50285631,-0.13493001,-0.85060370
1323442552.00150990,-0.50139070,-0.13349767,-0.84989202
1323442552.05254674,-0.50173557,-0.13129912,-0.85108089
1323442552.10153389,-0.50207204,-0.13481741,-0.85056126
1323442552.15352511,-0.50069648,-0.13290700,-0.84908861
1323442552.20149326,-0.50181204,-0.13360897,-0.85042739
1323442552.26152754,-0.50262517,-0.13252856,-0.84855646
1323442552.31322026,-0.50165999,-0.13218474,-0.84760809
1323442552.36552906,-0.50153595,-0.12961826,-0.84967136
1323442552.40533280,-0.50200653,-0.12877485,-0.84867752
1323442552.45250773,-0.50140083,-0.13313244,-0.85002345
1323442552.50165701,-0.50465512,-0.13540053,-0.85018653
1323442552.55351853,-0.50396085,-0.13384108,-0.84926182
1323442552.61335039,-0.50147343,-0.13398981,-0.84912366
1323442552.66165519,-0.50237793,-0.12962227,-0.84843540
1323442552.70464301,-0.50311935,-0.12984064,-0.85001349
1323442552.76547527,-0.50260735,-0.13323505,-0.85060215
1323442552.81352377,-0.50152683,-0.13083100,-0.84966218
1323442552.85256171,-0.50185812,-0.12914294,-0.84841019
1323442552.91255927,-0.50179046,-0.13383177,-0.85234809
1323442552.95124698,-0.50196481,-0.13069692,-0.85045666
1323442553.00532341,-0.50312167,-0.13444203,-0.85062182
1323442553.06194115,-0.50188601,-0.13262606,-0.85159260
1323442553.10554624,-0.50191367,-0.12864795,-0.84931445
1323442553.15356898,-0.50413859,-0.13283838,-0.85222816
1323442553.21355510,-0.50199002,-0.13226643,-0.85108799
1323442553.26456714,-0.50318742,-0.13130438,-0.84910911
1323442553.30463481,-0.50297743,-0.13032860,-0.84987396
1323442553.36153626,-0.50195557,-0.13321830,-0.85287452
1323442553.41256452,-0.50053900,-0.12889369,-0.85039103
1323442553.45352888,-0.50352871,-0.13055971,-0.85041559
1323442553.51323771,-0.50277752,-0.13458173,-0.84919131
1323442553.56164217,-0.50171912,-0.13120465,-0.84851599
1323442553.60151982,-0.50227368,-0.12935294,-0.85112447
1323442553.66153812,-0.50151736,-0.13141482,-0.85183746
1323442553.70154119,-0.50260979,-0.12996487,-0.85024101
1323442553.75351071,-0.50254124,-0.13249755,-0.85162961
1323442553.80146837,-0.50126451,-0.13386153,-0.85001069
1323442553.86150622,-0.50190461,-0.13310692,-0.85197490
1323442553.90452170,-0.50270009,-0.13142438,-0.84972256
1323442553.96553540,-0.50182378,-0.13334101,-0.85286635
1323442554.01352143,-0.50275934,-0.13141307,-0.85075182
1323442554.05273509,-0.50310510,-0.13240999,-0.84781432
1323442554.11291766,-0.50265640,-0.13262020,-0.85137862
1323442554.16555095,-0.50146270,-0.13081974,-0.85081279
1323442554.20564175,-0.50069958,-0.12985538,-0.85103416
1323442554.26577330,-0.50272971,-0.13369614,-0.85278553
1323442554.31364036,-0.50332248,-0.13006762,-0.85130543
1323442554.35265827,-0.49984923,-0.12900527,-0.85201925
1323442554.41349745,-0.50481158,-0.13428082,-0.85276783
1323442554.45272160,-0.50264472,-0.12957141,-0.85306686
1323442554.50453711,-0.50354677,-0.13503700,-0.85128212
1323442554.55356407,-0.50195414,-0.13505858,-0.85080951
1323442554.60555196,-0.50122905,-0.13396589,-0.85167503
1323442554.65353370,-0.50074333,-0.13190575,-0.85204774
1323442554.70555234,-0.50386918,-0.13318254,-0.85439080
1323442554.75652719,-0.50189400,-0.13187443,-0.85390663
1323442554.80464816,-0.50333959,-0.13369739,-0.85204971
1323442554.85270143,-0.50292248,-0.13235079,-0.85370344
1323442554.90469718,-0.50313425,-0.13308403,-0.85294044
1323442554.95362067,-0.50241107,-0.13271756,-0.85392904
1323442555.00553751,-0.50289518,-0.13468041,-0.85124880
1323442555.05353856,-0.50252074,-0.13356787,-0.85367256
1323442555.10551429,-0.50172609,-0.13188292,-0.85325617
1323442555.16158056,-0.50149226,-0.13309151,-0.85387576
1323442555.20149231,-0.50189131,-0.12996082,-0.85135555
1323442555.25344443,-0.50252914,-0.13441397,-0.85392344
1323442555.30543351,-0.50154549,-0.13455807,-0.85271406
1323442555.36553884,-0.50151169,-0.13248231,-0.85413766
1323442555.40863132,-0.50169629,-0.12995100,-0.85249895
1323442555.46151996,-0.50194871,-0.13246949,-0.85493124
1323442555.50448799,-0.50192934,-0.13080128,-0.85212100
1323442555.55334640,-0.50464892,-0.13390152,-0.85442859
1323442555.60490704,-0.50228792,-0.13562396,-0.85441440
1323442555.65324664,-0.50052291,-0.13294367,-0.85741389
1323442555.70167327,-0.50187987,-0.13209581,-0.85595596
1323442555.76164126,-0.50230956,-0.13208441,-0.85662091
1323442555.80552483,-0.50101471,-0.12897111,-0.85413545
1323442555.85353661,-0.50192446,-0.13305612,-0.85684919
1323442555.90454245,-0.50100738,-0.13221873,-0.85667640
1323442555.95328069,-0.50263429,-0.13255392,-0.85778952
1323442556.01356196,-0.50134271,-0.13392071,-0.85591328
1323442556.05263710,-0.50292164,-0.13344085,-0.85382378
1323442556.10462928,-0.50175744,-0.13294336,-0.85619962
1323442556.16509581,-0.50024909,-0.13258557,-0.85714495
1323442556.20463109,-0.50196487,-0.12965760,-0.85713226
1323442556.25351238,-0.50281364,-0.13268784,-0.85638791
1323442556.30110312,-0.50324279,-0.13439545,-0.85498875
1323442556.35315347,-0.50240165,-0.13330138,-0.85610431
1323442556.40149379,-0.50277108,-0.13342255,-0.85573912
1323442556.45309687,-0.50190294,-0.13327894,-0.85876989
1323442556.50155091,-0.50179183,-0.13426891,-0.85696143
1323442556.56557298,-0.50121015,-0.13513350,-0.85602552
1323442556.60153937,-0.50238633,-0.12846026,-0.85524052
1323442556.65354514,-0.50078541,-0.13185073,-0.85730797
1323442556.70495772,-0.50125265,-0.13439879,-0.85667431
1323442556.75279641,-0.50231886,-0.13280924,-0.85687268
1323442556.80153370,-0.50324893,-0.13388637,-0.85730094
1323442556.85367584,-0.50238001,-0.13255540,-0.85790372
1323442556.90472198,-0.50197816,-0.13280369,-0.85775155
1323442556.95357180,-0.50311613,-0.13316157,-0.85717058
1323442557.00565672,-0.50171310,-0.13392062,-0.85554904
1323442557.05354095,-0.50165397,-0.13158397,-0.85876834
1323442557.10556626,-0.50228047,-0.13133985,-0.85829169
1323442557.15281796,-0.50309086,-0.13290069,-0.85896629
1323442557.20549273,-0.50184727,-0.13280514,-0.85774434
1323442557.25266290,-0.50152069,-0.13257818,-0.85657388
1323442557.30567670,-0.50425327,-0.13364074,-0.85658860
1323442557.35350776,-0.50332236,-0.13365367,-0.85628074
1323442557.40555000,-0.50081986,-0.13317628,-0.85806978
1323442557.45355129,-0.50271291,-0.13096462,-0.85895932
1323442557.50464606,-0.50285715,-0.13280064,-0.85715890
1323442557.55433583,-0.50369292,-0.13559115,-0.85615909
1323442557.60740781,-0.50329822,-0.13293166,-0.85577166
1323442557.65367365,-0.49993882,-0.13148430,-0.85841805
1323442557.70461893,-0.50229168,-0.13182212,-0.85854530
1323442557.76454902,-0.50271988,-0.13365100,-0.85714519
1323442557.80464888,-0.50298226,-0.13062048,-0.85679668
1323442557.85354352,-0.50034904,-0.13208210,-0.85882109
1323442557.90453196,-0.50387889,-0.13349698,-0.85913366
1323442557.95263124,-0.50383592,-0.13263397,-0.86054808
1323442558.00151873,-0.50304455,-0.13315171,-0.85819256
1323442558.05250621,-0.50178421,-0.13461016,-0.85913849
1323442558.10465074,-0.50422591,-0.13396224,-0.86068827
1323442558.15353608,-0.50344336,-0.13263831,-0.86052638
1323442558.20149946,-0.50281680,-0.13288242,-0.86100304
1323442558.25519943,-0.50314659,-0.13434328,-0.86011314
1323442558.31252861,-0.50169021,-0.13266698,-0.85953194
1323442558.35264587,-0.50171214,-0.12975638,-0.85955399
1323442558.40537477,-0.50430089,-0.13382684,-0.86197567
1323442558.45340395,-0.50129747,-0.13397993,-0.86193734
1323442558.50456810,-0.50203478,-0.13412499,-0.85889930
1323442558.55216289,-0.50397563,-0.13507634,-0.85874301
1323442558.60452151,-0.50247550,-0.13362709,-0.85969657
1323442558.65354180,-0.50326037,-0.13298948,-0.86192435
1323442558.70129561,-0.50032467,-0.13169995,-0.86061770
1323442558.75653720,-0.50454259,-0.13421458,-0.85942155
1323442558.80127621,-0.50272799,-0.13386816,-0.85958052
1323442558.85254550,-0.50303650,-0.13189524,-0.86243278
1323442558.90462685,-0.50160491,-0.13447624,-0.86054015
1323442558.95351267,-0.50449300,-0.13226292,-0.86058694
1323442559.00142455,-0.50227797,-0.13364124,-0.85853148
1323442559.05355239,-0.50419271,-0.13542178,-0.86029130
1323442559.10109591,-0.50151765,-0.13231307,-0.85875559
1323442559.15323925,-0.50280201,-0.13288525,-0.86074573
1323442559.20147943,-0.50229895,-0.13312934,-0.86110097
1323442559.25325632,-0.50326550,-0.13494962,-0.85998708
1323442559.30817127,-0.50328010,-0.13300923,-0.86000180
1323442559.35479975,-0.50219023,-0.13215776,-0.86135840
1323442559.40152240,-0.50098091,-0.13241896,-0.86077696
1323442559.45351863,-0.50127149,-0.13350049,-0.86142641
1323442559.50149417,-0.50367463,-0.13373113,-0.86014658
1323442559.55258870,-0.50303239,-0.13409935,-0.86036503
1323442559.60152197,-0.50398225,-0.13616501,-0.85899204
1323442559.65310669,-0.50117487,-0.13288991,-0.86193836
1323442559.70454502,-0.50172734,-0.13362870,-0.86029649
1323442559.75675058,-0.50218552,-0.13179535,-0.86123252
1323442559.80566001,-0.50141466,-0.13352020,-0.85938239
1323442559.85404658,-0.50094765,-0.13290972,-0.86025870
1323442559.90458798,-0.50287896,-0.13347608,-0.86215633
1323442559.95365191,-0.50190806,-0.13192233,-0.86095983
1323442560.00698543,-0.50197643,-0.13401502,-0.85787106
1323442560.05286908,-0.50508291,-0.13590100,-0.85995221
1323442560.10566068,-0.50333434,-0.13532330,-0.85896236
1323442560.16556382,-0.50077361,-0.13011056,-0.86142325
1323442560.20566869,-0.50112927,-0.12880467,-0.85837460
1323442560.25352049,-0.50161028,-0.13277981,-0.86042434
1323442560.30469203,-0.50169408,-0.13411945,-0.85977823
1323442560.35276818,-0.50163436,-0.13253301,-0.86081219
1323442560.40550399,-0.50226557,-0.13265130,-0.86046141
1323442560.45254183,-0.50200748,-0.13216910,-0.86045063
1323442560.50452423,-0.50228810,-0.13327602,-0.85866290
1323442560.55378485,-0.50185305,-0.13498384,-0.85811377
1323442560.60450888,-0.50335544,-0.13350277,-0.85910481
1323442560.65352106,-0.50063312,-0.13304377,-0.85934275
1323442560.70456505,-0.50217843,-0.13242571,-0.85891944
1323442560.75258112,-0.50389373,-0.13349415,-0.85939097
1323442560.80154014,-0.50042176,-0.13390826,-0.85804260
1323442560.85354567,-0.50299704,-0.13289507,-0.85960233
1323442560.90179086,-0.50120562,-0.13242313,-0.86014813
1323442560.95351458,-0.50308901,-0.13314325,-0.85896444
1323442561.00152707,-0.50184375,-0.13425902,-0.85786200
1323442561.05352759,-0.50258791,-0.13411357,-0.85944283
1323442561.10795522,-0.50478947,-0.13421452,-0.85917872
1323442561.15357804,-0.50285989,-0.13471423,-0.85970998
1323442561.20161939,-0.50112033,-0.13195498,-0.85860801
1323442561.25342774,-0.50433087,-0.13445014,-0.86030585
1323442561.30155778,-0.50261056,-0.13570707,-0.85776561
1323442561.35352969,-0.50284773,-0.13338444,-0.85933411
1323442561.40152359,-0.50261551,-0.13241290,-0.85971302
1323442561.45458531,-0.50290912,-0.13375953,-0.85818070
1323442561.50147796,-0.50332874,-0.13508216,-0.85883552
1323442561.55337143,-0.50504655,-0.13384922,-0.85906726
1323442561.60148478,-0.50237280,-0.13449438,-0.85801768
1323442561.65358186,-0.50358742,-0.13253674,-0.85848331
1323442561.70464063,-0.50291336,-0.13252422,-0.86036980
1323442561.75368190,-0.50310326,-0.13389063,-0.85703641
1323442561.80165315,-0.50129038,-0.13461030,-0.85962421
1323442561.85353374,-0.50422579,-0.13299346,-0.86056697
1323442561.90148020,-0.50230670,-0.13375688,-0.85904515
1323442561.95255995,-0.50207448,-0.13278532,-0.85942405
1323442562.00161767,-0.50232059,-0.13387533,-0.85930157
1323442562.05354977,-0.50277561,-0.13509360,-0.85829204
1323442562.10154557,-0.50484830,-0.13592222,-0.85814387
1323442562.15349936,-0.50320393,-0.13360573,-0.86101919
1323442562.20154214,-0.50279653,-0.13361290,-0.86074024
1323442562.25353050,-0.50220078,-0.13339025,-0.85942668
1323442562.31252313,-0.50315195,-0.13264684,-0.85999733
1323442562.35353589,-0.50239134,-0.12841229,-0.85985756
1323442562.40148091,-0.50255400,-0.13106902,-0.86074507
1323442562.45366359,-0.50431198,-0.13334033,-0.86210799
1323442562.50105548,-0.50259131,-0.13396831,-0.86175221
1323442562.56476498,-0.50342703,-0.13579004,-0.86063111
1323442562.60564566,-0.50268871,-0.13024263,-0.85845023
1323442562.65353298,-0.50285619,-0.13091381,-0.86371219
1323442562.70566249,-0.50132328,-0.13252181,-0.86220562
1323442562.75352955,-0.50387126,-0.13383824,-0.86131078
1323442562.80553699,-0.50344872,-0.13321929,-0.86295897
1323442562.85365009,-0.50195050,-0.13249625,-0.86403567
1323442562.90567160,-0.50310647,-0.13408522,-0.86165154
1323442562.95367265,-0.50238949,-0.13093227,-0.86240405
1323442563.00499511,-0.50429159,-0.13310201,-0.86172390
1323442563.05754566,-0.50092071,-0.13482895,-0.86229515
1323442563.11271906,-0.50330675,-0.13370724,-0.86281937
1323442563.15357232,-0.50281793,-0.12813579,-0.86270416
1323442563.20553064,-0.50272936,-0.13430530,-0.86419386
1323442563.25367379,-0.50293905,-0.13237472,-0.86306512
1323442563.30564356,-0.50210011,-0.13491325,-0.86466777
1323442563.35350919,-0.50286937,-0.13309111,-0.86421025
1323442563.40467572,-0.50353658,-0.13235481,-0.86438054
1323442563.45352888,-0.50098914,-0.13360491,-0.86333358
1323442563.50463128,-0.50302064,-0.13332798,-0.86460161
1323442563.55263543,-0.50367624,-0.13382842,-0.86245418
1323442563.60860896,-0.50109959,-0.13336515,-0.86295670
1323442563.65251994,-0.50207758,-0.13201113,-0.86391789
1323442563.70158625,-0.50225788,-0.13299257,-0.86263847
1323442563.75202346,-0.50408375,-0.13479005,-0.86285442
1323442563.80862951,-0.50130492,-0.13397853,-0.86206597
1323442563.85352898,-0.50218338,-0.13140896,-0.86341512
1323442563.90555954,-0.50264287,-0.13332948,-0.86483723
1323442563.95258307,-0.50233930,-0.13200824,-0.86393237
1323442564.00149536,-0.50283366,-0.13457462,-0.86150479
1323442564.05352020,-0.50340253,-0.13443910,-0.86230648
1323442564.10456538,-0.50288737,-0.13432218,-0.86240715
1323442564.15351629,-0.50319254,-0.13346331,-0.86307132
1323442564.20553136,-0.50228113,-0.13383584,-0.86314666
1323442564.25352073,-0.50303113,-0.13359168,-0.86254859
1323442564.31263280,-0.50068045,-0.13364026,-0.86023873
1323442564.35377359,-0.50213814,-0.13023007,-0.86021525
1323442564.40151954,-0.50331306,-0.13188952,-0.86270452
1323442564.45511103,-0.50166583,-0.13456224,-0.86387694
1323442564.50463653,-0.50272995,-0.13459440,-0.85970366
1323442564.55151415,-0.50253582,-0.13446330,-0.86084801
1323442564.60558701,-0.50351512,-0.13458572,-0.85974699
1323442564.65384531,-0.50133377,-0.13278551,-0.86015260
1323442564.70531082,-0.50224787,-0.13204917,-0.86008006
1323442564.75367594,-0.50264168,-0.13482992,-0.86046648
1323442564.80149293,-0.50358206,-0.13423318,-0.85859913
1323442564.85356998,-0.50327927,-0.13409927,-0.86012220
1323442564.90556502,-0.50339794,-0.13276805,-0.85975355
1323442564.96182203,-0.50204939,-0.13218459,-0.85891402
1323442565.00155902,-0.50337690,-0.13003375,-0.85451448
1323442565.05353022,-0.50209337,-0.13389513,-0.85762185
1323442565.10102367,-0.50459832,-0.13337976,-0.85802007
1323442565.15359354,-0.50314206,-0.13267224,-0.85756022
1323442565.20109487,-0.50105810,-0.13266996,-0.85988182
1323442565.25274849,-0.50298548,-0.13510059,-0.85740590
1323442565.30862594,-0.50278944,-0.13424325,-0.85842711
1323442565.35378075,-0.50312966,-0.13168229,-0.85949010
1323442565.40134883,-0.50282437,-0.13157238,-0.85870469
1323442565.45458794,-0.50285351,-0.13328573,-0.85715520
1323442565.50153303,-0.50396156,-0.13302033,-0.85824400
1323442565.55253196,-0.50135165,-0.13304782,-0.85822821
1323442565.60549569,-0.50310153,-0.13510197,-0.85715586
1323442565.65666676,-0.50296640,-0.13205321,-0.85896552
1323442565.70472527,-0.50267869,-0.13157666,-0.85844016
1323442565.75361896,-0.50329161,-0.13412043,-0.85807097
1323442565.80465293,-0.50176746,-0.13388675,-0.85875809
1323442565.85364461,-0.50291163,-0.13373555,-0.86048925
1323442565.90552354,-0.50413132,-0.13276927,-0.85889632
1323442565.95352292,-0.50409251,-0.13398767,-0.85837251
1323442566.00605989,-0.50259632,-0.13268225,-0.85714537
1323442566.05418539,-0.50400454,-0.13388334,-0.85682964
1323442566.10567975,-0.50287127,-0.13485666,-0.85765785
1323442566.16552377,-0.50331807,-0.13288088,-0.86064601
1323442566.20478153,-0.50431269,-0.12900406,-0.85931802
1323442566.25365329,-0.50248516,-0.13498086,-0.85776389
1323442566.31286788,-0.50486392,-0.13482934,-0.85828078
1323442566.35256433,-0.50194049,-0.12927544,-0.85892886
1323442566.40553904,-0.50209659,-0.13181230,-0.85968870
1323442566.45361042,-0.50371385,-0.13411045,-0.85860723
1323442566.50563931,-0.50436997,-0.13386068,-0.85864520
1323442566.55254340,-0.50366455,-0.13506515,-0.86013651
1323442566.60466909,-0.50393295,-0.13387349,-0.85785162
1323442566.65454745,-0.50131619,-0.13315217,-0.85989255
1323442566.70454860,-0.50339156,-0.13361697,-0.85974711
1323442566.75359535,-0.50253421,-0.13436601,-0.85854042
1323442566.80153775,-0.50409049,-0.13457006,-0.86067647
1323442566.85352421,-0.50250971,-0.13301507,-0.86021578
1323442566.91351342,-0.50369024,-0.13263823,-0.86028355
1323442566.95385599,-0.50444400,-0.13060035,-0.85726207
